This demonstration page uses our WeatherBlox Daily Observations layout. Learn more.

Left ArrowRight Arrow

39.95238, -75.16362

Hourly Observations for February 14, 2017

Temp ( °F °C ) Dew Point ( °F °C ) Humidity (%) Winds ( mph kmh ) Pressure ( in mb ) Visibility ( mi km ) Precip ( " mm )
12:54 am 00:54 Mostly Clear 31 -0.6 16 -8.9 54 54 NNW 6 9 30.03 1017 10 16 0.00 0.00
1:54 am 01:54 Partly Cloudy 31 -0.6 17 -8.3 56 56 W 5 7 30.03 1017 10 16 0.00 0.00
2:54 am 02:54 Mostly Clear 29 -1.7 18 -7.8 63 63 WSW 6 9 30.02 1017 10 16 0.00 0.00
3:54 am 03:54 Partly Cloudy 29 -1.7 18 -7.8 63 63 W 8 13 30.02 1017 10 16 0.00 0.00
4:54 am 04:54 Mostly Cloudy 29 -1.7 19 -7.2 66 66 W 7 11 30.02 1017 10 16 0.00 0.00
5:54 am 05:54 Cloudy 29 -1.7 19 -7.2 66 66 W 6 9 30.02 1017 10 16 0.00 0.00
6:54 am 06:54 Cloudy 31 -0.6 18 -7.8 59 59 W 9 15 30.02 1017 10 16 0.00 0.00
7:54 am 07:54 Cloudy 31 -0.6 18 -7.8 59 59 WNW 8 13 30.03 1017 10 16 0.00 0.00
8:54 am 08:54 Cloudy 32 0 18 -7.8 56 56 NW 6 9 30.01 1016 10 16 0.00 0.00
9:54 am 09:54 Cloudy 34 1.1 18 -7.8 52 52 W 8 13 30.00 1016 10 16 0.00 0.00
10:54 am 10:54 Cloudy 34 1.1 18 -7.8 52 52 SSW 8 13 29.98 1015 10 16 0.00 0.00
11:54 am 11:54 Cloudy 37 2.8 20 -6.7 50 50 WSW 6 9 29.95 1014 10 16 0.00 0.00
12:54 pm 12:54 Mostly Cloudy 39 3.9 21 -6.1 48 48 WSW 14 22 29.90 1013 10 16 0.00 0.00
1:54 pm 13:54 Mostly Cloudy 41 5 22 -5.6 47 47 SW 13 20 29.87 1012 10 16 0.00 0.00
2:54 pm 14:54 Mostly Cloudy 43 6.1 24 -4.4 47 47 SSW 15 24 29.84 1011 10 16 0.00 0.00
3:54 pm 15:54 Partly Cloudy 45 7.2 26 -3.3 48 48 SW 15 24 29.83 1010 10 16 0.00 0.00
4:54 pm 16:54 Partly Cloudy 44 6.7 29 -1.7 55 55 SW 12 19 29.80 1009 10 16 0.00 0.00
5:54 pm 17:54 Partly Cloudy 42 5.6 30 -1.1 62 62 SSW 13 20 29.81 1010 10 16 0.00 0.00
6:54 pm 18:54 Clear 40 4.4 31 -0.6 70 70 S 9 15 29.81 1010 10 16 0.00 0.00
7:54 pm 19:54 Clear 39 3.9 29 -1.7 67 67 S 12 19 29.79 1009 10 16 0.00 0.00
8:54 pm 20:54 Partly Cloudy 38 3.3 29 -1.7 70 70 S 5 7 29.79 1009 10 16 0.00 0.00
9:54 pm 21:54 Mostly Cloudy 37 2.8 28 -2.2 70 70 S 3 6 29.77 1008 10 16 0.00 0.00
10:54 pm 22:54 Cloudy 36 2.2 28 -2.2 73 73 S 8 13 29.75 1007 10 16 0.00 0.00
11:54 pm 23:54 Cloudy 36 2.2 28 -2.2 73 73 SSW 6 9 29.73 1007 10 16 0.00 0.00

Powered by AerisWeather